Powrót do katalogu

STARLINK-31486

AktywnyŁącznośćVLEO
NORAD 59181·PAYLOAD·🇺🇸 United States

Wystrzelony Mar 10, 2024 z Cape Canaveral Space Force Station

Loading…

Następne Przeloty (najbliższe 24 godziny)

TLE

ŚwieżeSource: CelesTrak SupGP

Epoka: Sep 15, 2026, 02:49 UTC

1 59181C 24045D   26258.11784722  .00018918  00000+0  68509-3 0  2589
2 59181  43.0026  99.5099 0001355 275.1825 295.9517 15.27575260    15

Śledź STARLINK-31486 w czasie rzeczywistym z AllMySat

Download on the App Store